• In Netherlands
  • List of Countries
  • For 7 days
  • Water Temperature
  • Satellite Maps
  • Weather Map
  • Weather Widgets
  • user-avatar
    Login

    Hourly Weather Khulna

    Today, 19 November, Sunday

    Time Temperature Precipitation Wind Pressure Humidity
    00:00 +24°C° 0 mm 0 mps 758 mmHg 83%
    01:00 +26°C° 0 mm 1 mps 757 mmHg 83%
    02:00 +26°C° 0 mm 1 mps 757 mmHg 83%
    03:00 +26°C° 0 mm 1 mps 757 mmHg 84%
    04:00 +26°C° 0 mm 1 mps 757 mmHg 84%
    05:00 +26°C° 0 mm 1 mps 757 mmHg 84%
    06:00 +25°C° 0 mm 1 mps 757 mmHg 85%
    07:00 +27°C° 0 mm 1 mps 758 mmHg 79%
    08:00 +28°C° 0 mm 1 mps 758 mmHg 74%
    09:00 +30°C° 0 mm 2 mps 759 mmHg 68%
    10:00 +31°C° 0 mm 2 mps 759 mmHg 65%
    11:00 +31°C° 0 mm 2 mps 759 mmHg 61%
    12:00 +32°C° 0 mm 2 mps 758 mmHg 57%
    13:00 +32°C° 0 mm 2 mps 758 mmHg 58%
    14:00 +32°C° 0 mm 2 mps 757 mmHg 58%
    15:00 +32°C° 0 mm 2 mps 756 mmHg 58%
    16:00 +31°C° 0 mm 2 mps 757 mmHg 62%
    17:00 +30°C° 0 mm 1 mps 757 mmHg 66%
    18:00 +29°C° 0 mm 1 mps 757 mmHg 70%
    19:00 +29°C° 0 mm 1 mps 757 mmHg 71%
    20:00 +28°C° 0 mm 1 mps 758 mmHg 72%
    21:00 +28°C° 0 mm 1 mps 758 mmHg 73%
    22:00 +27°C° 0 mm 1 mps 758 mmHg 73%
    23:00 +27°C° 0 mm 1 mps 758 mmHg 73%

    Tomorrow, 20 November, Monday

    Time Temperature Precipitation Wind Pressure Humidity
    00:00 +27°C° 0 mm 1 mps 758 mmHg 72%
    01:00 +26°C° 0 mm 2 mps 758 mmHg 72%
    02:00 +26°C° 0 mm 2 mps 758 mmHg 72%
    03:00 +25°C° 0 mm 2 mps 757 mmHg 72%
    04:00 +25°C° 0 mm 1 mps 758 mmHg 73%
    05:00 +25°C° 0 mm 1 mps 758 mmHg 73%
    06:00 +24°C° 0 mm 1 mps 758 mmHg 74%
    07:00 +26°C° 0 mm 1 mps 758 mmHg 70%
    08:00 +28°C° 0 mm 2 mps 759 mmHg 65%
    09:00 +29°C° 0 mm 2 mps 760 mmHg 61%
    10:00 +31°C° 0 mm 2 mps 759 mmHg 56%
    11:00 +33°C° 0 mm 3 mps 759 mmHg 51%
    12:00 +34°C° 0 mm 3 mps 759 mmHg 46%
    13:00 +34°C° 0 mm 3 mps 758 mmHg 45%
    14:00 +34°C° 0 mm 3 mps 757 mmHg 44%
    15:00 +34°C° 0 mm 3 mps 756 mmHg 43%
    16:00 +33°C° 0 mm 3 mps 756 mmHg 46%
    17:00 +30°C° 0 mm 2 mps 757 mmHg 50%
    18:00 +28°C° 0 mm 2 mps 757 mmHg 54%
    19:00 +28°C° 0 mm 2 mps 757 mmHg 55%
    20:00 +27°C° 0 mm 2 mps 758 mmHg 55%
    21:00 +26°C° 0 mm 2 mps 758 mmHg 56%
    22:00 +26°C° 0 mm 2 mps 758 mmHg 56%
    23:00 +25°C° 0 mm 2 mps 758 mmHg 57%

    Day after tomorrow, 21 November, Tuesday

    Time Temperature Precipitation Wind Pressure Humidity
    00:00 +25°C° 0 mm 2 mps 758 mmHg 57%
    01:00 +24°C° 0 mm 2 mps 758 mmHg 58%
    02:00 +24°C° 0 mm 2 mps 757 mmHg 58%
    03:00 +24°C° 0 mm 2 mps 757 mmHg 59%
    04:00 +23°C° 0 mm 2 mps 757 mmHg 60%
    05:00 +23°C° 0 mm 2 mps 758 mmHg 61%
    06:00 +23°C° 0 mm 2 mps 758 mmHg 62%
    07:00 +24°C° 0 mm 3 mps 759 mmHg 58%
    08:00 +26°C° 0 mm 4 mps 759 mmHg 54%
    09:00 +27°C° 0 mm 4 mps 760 mmHg 51%
    10:00 +29°C° 0 mm 4 mps 760 mmHg 46%
    11:00 +30°C° 0 mm 5 mps 759 mmHg 41%
    12:00 +32°C° 0 mm 5 mps 759 mmHg 36%
    13:00 +32°C° 0 mm 5 mps 758 mmHg 36%
    14:00 +32°C° 0 mm 5 mps 757 mmHg 35%
    15:00 +32°C° 0 mm 4 mps 757 mmHg 35%
    16:00 +30°C° 0 mm 4 mps 757 mmHg 38%
    17:00 +28°C° 0 mm 3 mps 757 mmHg 41%
    18:00 +26°C° 0 mm 2 mps 757 mmHg 44%
    19:00 +25°C° 0 mm 2 mps 757 mmHg 44%
    20:00 +24°C° 0 mm 2 mps 758 mmHg 43%
    21:00 +24°C° 0 mm 2 mps 759 mmHg 43%
    22:00 +23°C° 0 mm 2 mps 759 mmHg 43%
    23:00 +23°C° 0 mm 2 mps 758 mmHg 43%

    22 November, Wednesday

    Time Temperature Precipitation Wind Pressure Humidity
    00:00 +21°C° 0 mm 2 mps 758 mmHg 43%
    01:00 +20°C° 0 mm 2 mps 758 mmHg 42%
    02:00 +20°C° 0 mm 2 mps 758 mmHg 42%
    03:00 +19°C° 0 mm 2 mps 757 mmHg 42%
    04:00 +19°C° 0 mm 2 mps 758 mmHg 42%
    05:00 +19°C° 0 mm 2 mps 758 mmHg 42%
    06:00 +18°C° 0 mm 2 mps 758 mmHg 42%
    07:00 +20°C° 0 mm 2 mps 759 mmHg 40%
    08:00 +23°C° 0 mm 2 mps 759 mmHg 39%
    09:00 +24°C° 0 mm 2 mps 760 mmHg 38%
    10:00 +26°C° 0 mm 3 mps 759 mmHg 35%
    11:00 +27°C° 0 mm 3 mps 759 mmHg 33%
    12:00 +28°C° 0 mm 3 mps 758 mmHg 30%
    13:00 +29°C° 0 mm 3 mps 757 mmHg 30%
    14:00 +29°C° 0 mm 3 mps 757 mmHg 31%
    15:00 +29°C° 0 mm 3 mps 756 mmHg 31%
    16:00 +27°C° 0 mm 3 mps 756 mmHg 35%
    17:00 +25°C° 0 mm 2 mps 756 mmHg 39%
    18:00 +23°C° 0 mm 2 mps 756 mmHg 43%
    19:00 +21°C° 0 mm 2 mps 757 mmHg 43%
    20:00 +21°C° 0 mm 2 mps 757 mmHg 44%
    21:00 +20°C° 0 mm 2 mps 758 mmHg 45%
    22:00 +20°C° 0 mm 2 mps 758 mmHg 46%
    23:00 +19°C° 0 mm 2 mps 758 mmHg 47%

    23 November, Thursday

    Time Temperature Precipitation Wind Pressure Humidity
    00:00 +19°C° 0 mm 2 mps 758 mmHg 48%
    01:00 +19°C° 0 mm 2 mps 757 mmHg 50%
    02:00 +18°C° 0 mm 2 mps 757 mmHg 51%
    03:00 +18°C° 0 mm 2 mps 757 mmHg 53%
    04:00 +18°C° 0 mm 2 mps 757 mmHg 54%
    05:00 +18°C° 0 mm 2 mps 757 mmHg 55%
    06:00 +17°C° 0 mm 2 mps 758 mmHg 56%
    07:00 +19°C° 0 mm 2 mps 758 mmHg 53%
    08:00 +21°C° 0 mm 2 mps 759 mmHg 50%
    09:00 +24°C° 0 mm 3 mps 760 mmHg 48%
    10:00 +26°C° 0 mm 3 mps 759 mmHg 46%
    11:00 +27°C° 0 mm 3 mps 759 mmHg 45%
    12:00 +28°C° 0 mm 3 mps 758 mmHg 43%
    13:00 +29°C° 0 mm 3 mps 758 mmHg 42%
    14:00 +29°C° 0 mm 3 mps 757 mmHg 41%
    15:00 +29°C° 0 mm 3 mps 756 mmHg 40%
    16:00 +28°C° 0 mm 2 mps 757 mmHg 44%
    17:00 +26°C° 0 mm 2 mps 757 mmHg 48%
    18:00 +24°C° 0 mm 2 mps 757 mmHg 53%
    19:00 +23°C° 0 mm 2 mps 757 mmHg 54%
    20:00 +23°C° 0 mm 2 mps 758 mmHg 55%
    21:00 +21°C° 0 mm 2 mps 758 mmHg 56%
    22:00 +21°C° 0 mm 2 mps 758 mmHg 57%
    23:00 +20°C° 0 mm 2 mps 758 mmHg 59%

    24 November, Friday

    Time Temperature Precipitation Wind Pressure Humidity
    00:00 +20°C° 0 mm 2 mps 758 mmHg 60%
    01:00 +20°C° 0 mm 2 mps 758 mmHg 62%
    02:00 +19°C° 0 mm 2 mps 758 mmHg 64%
    03:00 +19°C° 0 mm 2 mps 758 mmHg 66%
    04:00 +19°C° 0 mm 2 mps 758 mmHg 67%
    05:00 +18°C° 0 mm 2 mps 758 mmHg 68%
    06:00 +18°C° 0 mm 2 mps 758 mmHg 69%
    07:00 +20°C° 0 mm 2 mps 759 mmHg 65%
    08:00 +23°C° 0 mm 2 mps 760 mmHg 60%
    09:00 +25°C° 0 mm 2 mps 760 mmHg 55%
    10:00 +26°C° 0 mm 3 mps 760 mmHg 50%
    11:00 +27°C° 0 mm 3 mps 759 mmHg 45%
    12:00 +29°C° 0 mm 3 mps 759 mmHg 40%
    13:00 +29°C° 0 mm 3 mps 758 mmHg 39%
    14:00 +29°C° 0 mm 3 mps 758 mmHg 37%
    15:00 +30°C° 0 mm 3 mps 757 mmHg 36%
    16:00 +28°C° 0 mm 2 mps 757 mmHg 40%
    17:00 +26°C° 0 mm 2 mps 757 mmHg 44%
    18:00 +24°C° 0 mm 2 mps 757 mmHg 48%
    19:00 +23°C° 0 mm 2 mps 758 mmHg 48%
    20:00 +23°C° 0 mm 2 mps 758 mmHg 49%
    21:00 +21°C° 0 mm 2 mps 759 mmHg 50%
    22:00 +20°C° 0 mm 2 mps 759 mmHg 50%
    23:00 +20°C° 0 mm 2 mps 759 mmHg 51%
    Show more